www.pogodaiklimat.ru

Погода и климат >> Архив погоды >> Россия >> Воронежская область >> Павловск


ПОГОДА в Павловск

  • Прогноз погоды в Павловск
  • Монитор погоды в Павловск

АРХИВ ПОГОДЫ в Павловск

Время (UTC), дата Ветер
(напр.,м/с)
 
Видим.   Явления Облачность Т
(С)
Тd
(С)
f
(%)
Тe
(С)
Тes
(С)
Комфортность P
(гПа)
Po
(гПа)
Тmin
(С)
Tmax
(С)
R
(мм)
R24
(мм)
S
(см)
00 18.08 штиль 0 2000 м дымка 10/10 600 м
[St]
+16.5 +15.6 94 +16 +16 1008.7 997.1
03 18.08 Ю 1 2000 м дымка 10/10 300 м
[St]
+17.3 +16.8 97 +18 +18 1009.6 998.0 +15.3 0.3
06 18.08 штиль 0 500 м туман ?/? +19.3 +18.3 94 +21 +21 комфорт 1011.5 1000.0
09 18.08 СЗ 1 4000 м дымка {туман} 9/9 600 м
[Sc]
+23.7 +19.0 75 +28 +30 душно 1010.7 999.4
12 18.08 штиль 0 4000 м дымка {туман} 9/9 600 м
[Sc diur, vesp]
+26.1 +19.1 65 +31 +32 очень
душно
1010.8 999.5
15 18.08 СЗ 1 10 км 9/4 1000 м
[Sc diur, vesp Ac und]
+25.2 +18.6 67 +30 +30 душно 1011.3 1000.0 +27.3
18 18.08 штиль 0 10 км {гроза} 9/9 1000 м
[Sc]
+22.4 +19.2 82 +28 +28 душно 1014.1 1002.7
21 18.08 штиль 0 10 км 9/9 1000 м
[Sc]
+20.0 +18.4 91 +23 +23 комфорт 1013.0 1001.5
00 19.08 СЗ 2 10 км 9/9 1000 м
[Sc]
+19.0 +16.8 87 +21 +21 комфорт 1015.6 1004.0
03 19.08 СЗ 2 4000 м слаб. ливневой дождь 10/10 600 м
[Cb cap]
+17.3 +16.3 94 +18 +18 1015.6 1004.0 +17.1 0.6
06 19.08 СЗ 2 10 км {ливн. осадки} 6/0
[Ac cuf Ci fib]
+19.1 +16.9 87 +21 +24 комфорт 1016.9 1005.3
09 19.08 СЗ 2 10 км 9/0
[Ci sp]
+25.6 +16.9 59 +29 +40 душно 1016.5 1005.2
12 19.08 С 4 10 км 10/10 600 м
[Cb cap]
+23.8 +17.3 67 +28 +28 душно 1018.1 1006.7
15 19.08 С 2 10 км 8/0
[Ac cuf]
+22.6 +15.6 65 +27 +27 душно 1017.4 1005.9 +26.0 0.0
18 19.08 С 1 10 км ясно +20.6 +16.2 76 +25 +25 комфорт 1018.3 1006.7
21 19.08 штиль 0 10 км ясно +17.6 +15.7 89 +18 +18 1019.8 1008.1
00 20.08 штиль 0 10 км ясно +16.8 +15.1 90 +17 +17 1021.1 1009.3
03 20.08 штиль 0 10 км ясно +17.2 +15.7 91 +17 +17 1020.4 1008.7 +15.7
06 20.08 СВ 4 10 км ясно +22.4 +17.1 72 +27 +32 душно 1022.2 1010.7 +15.4
09 20.08 С 3 10 км ясно +26.6 +15.3 50 +29 +41 жарко 1020.6 1009.2
12 20.08 С 3 10 км ясно +28.8 +13.8 40 +31 +38 жарко 1022.0 1010.7
15 20.08 СВ 3 10 км ясно +27.8 +14.4 44 +30 +31 жарко 1020.5 1009.2 +29.7
18 20.08 С 2 10 км ясно +22.3 +15.4 65 +26 +26 жарко 1022.3 1010.7
21 20.08 СЗ 1 10 км ясно +17.0 +14.0 82 +18 +18 1021.9 1010.1
00 21.08 штиль 0 10 км ясно +13.3 +11.9 91 +13 +13 1022.6 1010.7
03 21.08 СЗ 1 10 км ясно +14.6 +13.2 91 +15 +15 1022.4 1010.6 +12.3
06 21.08 СВ 3 10 км ясно +21.2 +15.1 68 +24 +30 комфорт 1023.6 1012.0
09 21.08 СВ 5 10 км ясно +26.6 +14.7 48 +29 +36 жарко 1022.0 1010.6
12 21.08 СВ 5 10 км ясно +29.1 +14.1 40 +31 +36 жарко 1022.0 1010.7
15 21.08 СВ 3 10 км ясно +28.4 +14.8 43 +31 +31 душно 1019.8 1008.5 +29.7
18 21.08 СВ 2 10 км ясно +22.6 +15.7 65 +27 +27 душно 1020.8 1009.3
21 21.08 СВ 2 10 км ясно +19.4 +14.6 74 +22 +22 комфорт 1020.1 1008.5
00 22.08 СВ 1 10 км ясно +17.5 +14.9 85 +19 +19 1021.0 1009.3
03 22.08 С 1 10 км ясно +16.8 +14.6 87 +18 +18 1020.5 1008.7 +15.2
06 22.08 СВ 2 10 км ясно +23.4 +16.7 66 +28 +35 душно 1020.8 1009.3
09 22.08 СВ 3 10 км ясно +29.2 +15.8 44 +32 +43 душно 1019.6 1008.4
12 22.08 С 3 10 км ясно +30.4 +11.4 31 +31 +38 жарко 1020.5 1009.3
15 22.08 С 2 10 км 4/0
[Ac cast Ci fib]
+28.8 +15.5 44 +32 +32 душно 1019.0 1007.7 +28.8
18 22.08 штиль 0 10 км ясно +20.3 +15.5 74 +23 +23 комфорт 1020.9 1009.3
21 22.08 штиль 0 10 км ясно +17.7 +15.7 88 +18 +18 1019.9 1008.2
00 23.08 штиль 0 10 км ясно +15.8 +14.0 89 +16 +16 1021.1 1009.3
03 23.08 СЗ 1 10 км 9/0
[Ci sp]
+17.4 +15.2 87 +18 +19 1020.6 1008.9 +15.0
06 23.08 С 2 10 км 9/0
[Ci sp]
+23.4 +17.1 68 +29 +29 душно 1022.2 1010.7
09 23.08 С 2 10 км 9/0
[Ci sp]
+28.2 +16.5 49 +32 +42 душно 1021.0 1009.7
12 23.08 С 2 10 км 7 баллов +27.7 +16.0 49 +31 +33 душно 1022.0 1010.7
15 23.08 СВ 2 10 км 8/1 1000 м
[Cu hum Ci sp]
+26.6 +12.1 41 +28 +29 жарко 1021.0 1009.6 +30.3
18 23.08 СВ 2 10 км 7 баллов +24.5 +16.5 61 +28 +28 душно 1022.2 1010.7
21 23.08 С 2 10 км ясно +21.6 +15.0 66 +25 +25 комфорт 1021.1 1009.6
00 24.08 С 2 10 км ясно +17.6 +9.2 58 +18 +18 1022.5 1010.7
03 24.08 С 2 10 км ясно +17.8 +13.6 76 +18 +18 1021.7 1010.0 +15.5
06 24.08 С 3 10 км 7 баллов +21.1 +13.5 62 +24 +25 комфорт 1023.6 1012.0
09 24.08 СВ 3 10 км 8/0
[Ci fib]
+26.8 +17.1 55 +31 +40 душно 1022.1 1010.7
12 24.08 СВ 3 10 км 4 балла +29.1 +16.6 47 +33 +37 очень
душно
1022.0 1010.7
18 24.08 СЗ 1 10 км ясно +23.6 +16.9 66 +27 +27 жарко 1022.2 1010.7
21 24.08 СЗ 1 10 км ясно +20.6 +15.9 74 +25 +25 комфорт 1021.3 1009.7

 

Местоположение метеостанции Павловск (Воронежская область, Россия): широта 50.43 долгота 40.47 высота над уровнем моря 99 м.

В архиве по умолчанию представлена погода в Павловск за последнюю неделю. Архивные данные за месяц целиком и за предыдущие месяцы, начиная с января 2011 года, Вы можете получить, выбрав интересующий диапазон дат из раскрывающегося списка и нажав кнопку "Ввод!".


*Определитесь, кто Вы:
робот инопланетянин человек

Внимание! Время в таблицах - всемирное. Для получения местного времени необходимо прибавить поправку, которая равна 3 ч.

Смотрите также архив погоды в соседних городах и на ближайших метеорологических станциях:

Погода в Калаче (Воронежская область, Россия) (41 км)
Погода в Богучаре (Воронежская область, Россия) (56 км)
Погода в Каменной Степи (Воронежская область, Россия) (71 км)
Погода в Казанской (Ростовская область, Россия) (85 км)
Погода в Лисках (Воронежская область, Россия) (93 км)
Погода в Урюпинске (Волгоградская область, Россия) (116 км)
Погода в Анне (Воронежская область, Россия) (117 км)
Погода в Чертково (Ростовская область, Россия) (119 км)
Погода в Беловодске (Луганская область, Украина) (149 км)
Погода в Борисоглебске (Воронежская область, Россия) (154 км)

Пояснения к столбцам:

Ветер - указаны скорость ветра в м/с - средняя за 10 мин, порывы в срок и между сроками (в фигурных скобках) и направление, откуда дует ветер: С - северный, СВ - северо-восточный, В - восточный, ЮВ - юго-восточный, Ю - южный, ЮЗ - юго-западный, З - западный, СЗ - северо-западный.
Видимость - горизонтальная дальность видимости в метрах или километрах. При видимости от 1 до 10 км при отсутствии осадков обычно наблюдается дымка, при ухудшении видимости до 1 км и менее - туман. В сухую погоду видимость может ухудшаться дымом, пылью или мглою.
Явления - указаны атмосферные явления, наблюдавшиеся в срок или в последний час перед сроком; фигурными скобками обозначены явления, наблюдавшиеся между сроками (за 1-3 часа до срока); квадратными скобками обозначены град или гололедные отложения с указанием их диаметра в мм.
Облачность - указаны через наклонную черту общая и нижняя облачность в баллах и высота нижней границы облаков в метрах; квадратными скобками обозначены формы облаков: Ci - перистые, Cs - перисто-слоистые, Cc - перисто-кучевые, Ac - высококучевые, As - высокослоистые, Sc - слоисто-кучевые, Ns - слоисто-дождевые, Cu - кучевые, Cb - кучево-дождевые. Подробнее классификацию облаков см. в Атласе облаков (PDF).
T - Температура воздуха - температура, измеренная на высоте 2 м над землей.
Td - Температура точки росы - температура, при понижении до которой содержащийся в воздухе водяной пар достигнет насыщения.
f - Относительная влажность воздуха - влажноcть воздуха, измеренная на высоте 2 м над землей.
Te - Эффективная температура - температура, которую ощущает одетый по сезону человек в тени. Характеристика душности погоды. При расчете учитывается влияние влажности воздуха и скорости ветра на теплоощущения человека.
Tes - Эффективная температура на солнце - температура, которую ощущает человек, с поправкой на солнечный нагрев. Характеристика знойности погоды. Зависит от высоты солнца над горизонтом, облачности и скорости ветра. Ночью, в пасмурную погоду, а также при ветре 12 м/с и более поправка равна нулю.
P - Атмосферное давление - приведенное к уровню моря атмосферное давление.
Po - Атмосферное давление - измеренное на уровне метеостанции атмосферное давление.
Tmin - Минимальная температура - минимум температуры воздуха на высоте 2 м над землей.
Tmax - Максимальная температура - максимум температуры воздуха на высоте 2 м над землей.
R - Количество осадков - Количество выпавших осадков за период времени, мм. При наведении курсора мыши на число - период времени, за который выпало указанное количество осадков.
R24 - Количество осадков - Количество выпавших осадков за 24 часа, мм.
S - Снежный покров - Высота снежного покрова, см. При наведении курсора мыши на число - состояние снежного покрова и степень покрытия местности в баллах.